AirNav   Pilot Hours Calculator
 
 1719 users online  

0CO2 Crested Butte Airpark
Crested Butte, Colorado, USA

GOING TO CRESTED BUTTE?


FAA INFORMATION EFFECTIVE 15 JULY 2021

Location

FAA Identifier: 0CO2
Lat/Long: 38-51-06.9730N 106-55-58.1540W
38-51.116217N 106-55.969233W
38.8519369,-106.9328206
(estimated)
Elevation: 8980 ft. / 2737 m (estimated)
Variation: 12E (1985)
From city: 3 miles SE of CRESTED BUTTE, CO
Time zone: UTC -6 (UTC -7 during Standard Time)
Zip code: 81224

Airport Operations

Airport use: Private use. Permission required prior to landing
Control tower: no
ARTCC: DENVER CENTER
FSS: DENVER FLIGHT SERVICE STATION
Attendance: UNATNDD
Wind indicator: yes
Segmented circle: no

Airport Communications

UNICOM: 122.8
WX AWOS-3PT at GUC (19 nm S): 135.075 (970-641-3240)

Nearby radio navigation aids

VOR radial/distance  VOR name  Freq  Var
HBUr358/24.5BLUE MESA VOR/DME114.9014E
DBLr171/35.3RED TABLE VOR/DME113.0012E

Airport Services

Parking: hangars and tiedowns
Bottled oxygen: NONE

Runway Information

Runway 11/29

Dimensions: 4000 x 40 ft. / 1219 x 12 m
Surface: asphalt
Runway edge lights: non-standard
Operational restrictions: SLOPES 2 PER CENT TO SE, LAND UPHILL RWY 29, TAKEOFF DOWNHILL RWY 11.
RUNWAY 11  RUNWAY 29
Traffic pattern: rightleft
Visual slope indicator: intended for private use only
Obstructions: 4 ft. fence, 250 ft. from runway, 4:1 slope to clear8 ft. pole, 40 ft. from runway, 58 ft. left of centerline, 5:1 slope to clear

Airport Ownership and Management from official FAA records

Ownership: Privately-owned
Owner: CRESTED BUTTE AIRPARK ASSOCIATION
PO BOX 3450
CRESTED BUTTE, CO 81224
Phone 702-497-3137
Manager: CATHRINE LOW
PO BOX 3450
CRESTED BUTTE, CO 81224
Phone 702-497-3137

Airport Operational Statistics

Aircraft based on the field: 6
Ultralights: 6
    
Aircraft operations: avg 31/week *
74% air taxi
12% transient general aviation
12% local general aviation
1% military
* for 12-month period ending 08 September 1993

Additional Remarks

+3000' MTNS SURROUNDING ARPT.
+3' TO 5' & HIGHER SNOW BANKS ALONG RY 11/29 EDGES DURING WINTER SEASON - WHEN OPEN.
RWY 11 75' TREES ON HILL 250' ABOVE RY; 300' L OF RY CNTRLN EXTDD; 1500' FM THR;4:1 RATIO.
FOR WINTER CONDS CALL AMGR 303-740-8142.
CALL AHEAD FOR PARKING INSTRUCTIONS AND PERMISSION - 303-740-8142.
LANDING FEES APPLY - RESIDENTIAL AIRPARK.
FOR CD CTC DENVER ARTCC AT 303-651-4257.

Instrument Procedures

There are no published instrument procedures at 0CO2.

Some nearby airports with instrument procedures:

KGUC - Gunnison-Crested Butte Regional Airport (19 nm S)
KASE - Aspen-Pitkin County Airport/Sardy Field (22 nm N)
KLXV - Lake County Airport (36 nm NE)
KAEJ - Central Colorado Regional Airport (38 nm E)
KANK - Salida Airport/Harriett Alexander Field (45 nm SE)
 
Loc | Ops | Rwys | IFR | FBO | Links
Com | Nav | Svcs | Stats | Notes

AirBoss

 
Area around 0CO2 (Crested Butte Airpark)
 
Road maps at: MapQuest Bing Google
 
Aerial photo
WARNING: Photo may not be current or correct
Aerial photo of 0CO2 (Crested Butte Airpark)
Do you have a better or more recent aerial photo of Crested Butte Airpark that you would like to share? If so, please send us your photo.

 
Sectional chart

 
Airport distance calculator
Flying to Crested Butte Airpark? Find the distance to fly.

From to 0CO2

Sunrise and sunset
Times for 29-Jul-2021
 Local
(UTC-6)
 Zulu
(UTC)
Morning civil twilight05:3711:37
Sunrise06:0712:07
Sunset20:2102:21
Evening civil twilight20:5102:51

Current date and time
Zulu (UTC)  29-Jul-2021 20:01:16
Local (UTC-6)  29-Jul-2021 14:01:16
 
METAR
KGUC 
20nm S 
291956Z AUTO 10008G14KT 9SM CLR 29/09 A3033 RMK AO2 LTG DSNT SW SLP165 T02940089
KASE 
23nm N 
291953Z 27008G20KT 10SM FEW095 31/07 A3032 RMK AO2 SLP114 T03060072
K7BM 
34nm E 
291955Z AUTO 13006G19KT 10SM SCT060 SCT075 SCT095 26/05 A3058 RMK AO2 LTG DSNT SW
KMYP 
36nm SE 
291630Z AUTO 06014G19KT 10SM SCT036 SCT042 SCT049 16/06 A3086 RMK AO2
KLXV 
37nm NE 
291953Z AUTO 13008KT 090V170 10SM CLR 24/03 A3056 RMK AO2 SLP135 T02440028
KAEJ 
38nm E 
291955Z AUTO 08010G16KT 10SM SCT080 SCT110 29/03 A3040 RMK AO2 T02850031
K5SM 
40nm NW 
291937Z AUTO 33006KT 10SM SCT039 SCT046 BKN050 18/08 A3066 RMK AO2 LTG DSNT W
TAF
KGUC 
20nm S 
291141Z 2912/3012 VRB03KT P6SM FEW090 SCT150 FM291800 11008KT P6SM VCTS FEW090CB SCT100 FM292300 13012G23KT 6SM -SHRA BR VCTS SCT090CB BKN100 FM300300 34008KT P6SM VCTS BKN100CB
KASE 
23nm N 
291141Z 2912/3012 21008KT P6SM FEW090 SCT120 FM291800 22008G18KT P6SM VCTS SCT090CB BKN110 FM292300 17012G26KT 6SM -TSRA SCT080CB BKN100 FM300400 19005KT P6SM VCTS SCT070CB BKN090
NOTAMs
Click for the latest NOTAMs
NOTAMs are issued by the DoD/FAA and will open in a separate window not controlled by AirNav.

 

 
 

Would you like to see your business listed on this page?

 If your business provides an interesting product or service to pilots, flight crews, aircraft, or users of the Crested Butte Airpark, you should consider listing it here.  To start the listing process, click on the button below
 
Add a business
 

Other Pages about Crested Butte Airpark

Update a link
 
Copyright © AirNav, LLC. All rights reserved. Privacy Policy  Contact